Regional Weather Roundup
Issued by NWS

Home | Current Version | Previous Version | Graphics & Text | Print | Product List | Glossary On
Versions: 1 2 3 4 5 6 7 8 9 10 11 12 13 14 15 16 17 18 19 20 21 22 23 24 25 26 27 28 29 30 31 32 33 34 35 36 37 38 39 40 41 42 43 44 45 46 47 48 49 50
000
ASUS45 KCYS 011710
RWRWY

WYOMING REGIONAL WEATHER ROUNDUP
NATIONAL WEATHER SERVICE CHEYENNE WY
1100 AM MDT WED APR 01 2015

NOTE:  "FAIR" INDICATES FEW OR NO CLOUDS BELOW 12,000 FEET
WITH NO SIGNIFICANT WEATHER AND/OR OBSTRUCTIONS TO VISIBILITY.

WYZ001-011800-
YELLOWSTONE NATIONAL PARK

CITY           SKY/WX    TMP DP  RH WIND       PRES   REMARKS
LK YELLOWSTONE   N/A     26  15  63 NW8       29.96R WCI  18
W YELLOWSTONE  NOT AVBL

$$
WYZ002>013-054>058-071-098>099-011800-
NORTHERN WYOMING

CITY           SKY/WX    TMP DP  RH WIND       PRES   REMARKS
JACKSON        PTSUNNY   34  19  55 SW13G20   30.00R WCI  25
CODY           PTSUNNY   43  16  33 NW15G25   29.90R
GREYBULL       CLOUDY    48  16  27 N21G28    29.87R
WORLAND        FAIR      49  20  31 N20       29.88R
SHERIDAN         N/A     43  21  41 W18       29.87F
BUFFALO        CLOUDY    37  24  59 N33G46    29.84R WCI  24
GILLETTE       CLOUDY    37  29  72 NW24G31   29.85R WCI  26
HULETT         CLOUDY    45  28  53 NW16G26   29.82R
NEWCASTLE      FAIR      50  32  50 NW24G33   29.76R

$$
WYZ014>020-022>026-101>103-011800-
CENTRAL WYOMING

CITY           SKY/WX    TMP DP  RH WIND       PRES   REMARKS
BIG PINEY      FAIR      38   5  25 NW15      30.01R WCI  29
PINEDALE       FAIR      34   9  35 NW15      30.00R WCI  24
DUBOIS         PTSUNNY   32   9  37 NW21G31   29.91R WCI  20
LANDER         NOT AVBL
RIVERTON       FAIR      49   8  19 NW35G47   29.86R
CASPER         PTSUNNY   50  33  52 N5        29.83R
DOUGLAS          N/A     52  33  48 N10       29.80R

$$
WYZ021-027>030-104>119-011800-
SOUTHERN WYOMING

CITY           SKY/WX    TMP DP  RH WIND       PRES   REMARKS
EVANSTON       FAIR      35  12  38 W10G22    30.06S WCI  27
FORT BRIDGER   FAIR      39   9  28 W21G26    30.08R WCI  29
ROCK SPRINGS   FAIR      40  11  30 W21G30    30.01R WCI  30
DIXON          CLOUDY    45  20  36 W14       30.01R
RAWLINS        FAIR      46  14  27 W26G39    29.91R
SARATOGA       CLOUDY    45  16  31 W24G33    29.96R
LARAMIE        CLOUDY    50  25  37 NW14      29.86S
CHEYENNE       FAIR      59  24  26 W9        29.81F
TORRINGTON     FAIR      67  27  22 W20G28    29.72R
PINE BLUFFS    FAIR      66  25  20 NW23G30   29.76S

$$



USA.gov is the U.S. government's official web portal to all federal, state and local government web resources and services.